Tracking 35048 objects as of 19-Aug-2026
HD Live streaming from Space Station
objects crossing your sky now

ICEYE-X43

Track ICEYE-X43 now!
10-day predictions
ICEYE-X43 is classified as:


NORAD ID: 60539
Int'l Code: 2024-149BZ
Launch date: August 16, 2024
Source: United States (US)
Launch site: AIR FORCE WESTERN TEST RANGE (AFWTR)

Uplink (MHz):
Downlink (MHz): 2263.500
Beacon (MHz):
Mode: 300k BPSK
Call sign:
Status: Unknown

Your satellite tracking list
Your tracking list is empty




NASA's NSSDC Master Catalog

Two Line Element Set (TLE):
1 60539U 24149BZ  26230.87714004  .00002165  00000-0  17932-3 0  9996
2 60539  97.6714 306.9794 0007943 196.2819 163.8151 14.99889047109516
Source of the keplerian elements: AFSPC